Flag for Germany Weather past 2 weeks in Marburg, Hesse, Germany

Now
51 °F

Cool.


Feels Like: 51 °F
Forecast: 38 / 55 °F
Wind: 3 mph from West

Location: Giessen

Current Time: Oct 23, 2014 at 4:06:02 PM

Latest Report: Oct 23, 2014 at 3:00 PM


Visibility: 6 mi

Pressure: 30.24 "Hg

Humidity: 85%

Dew point: 47 °F

Location of MarburgLocation

Historic Weather in Marburg — Graph

°F

Marburg temperature yesterday

Maximum temperature yesterday: 49 °F (at 6:00 PM)
Minimum temperature yesterday: 42 °F (at 3:00 AM)
Average temperature yesterday: 46 °F

Past Weeks' High & Low Weather Summary

 TemperatureHumidityPressure
High70 °F (Oct 19, 4:00 PM)100% (Oct 12, 5:00 AM)30.26 "Hg (Oct 12, 5:00 AM)
Low42 °F (Oct 22, 3:00 AM)61% (Oct 15, 4:00 PM)29.50 "Hg (Oct 21, 6:00 PM)
Average54 °F92%29.91 "Hg
* Reported Oct 8 3:00 PM — Oct 23 3:00 PM, Marburg, Weather by CustomWeather, © 2014

Note: Actual official high and low records may vary slightly from our data, if they occured in-between our weather recording intervals... More about our weather records

Advertising

Marburg weather history for previous 24 hours

 ConditionsComfort  
Time TempWeatherWind HumidityBarometerVisibility
3:00 PM
Oct 23
51 °FCool.3 mph85%30.24 "Hg6 mi
2:00 PM51 °FCool.5 mph85%30.25 "Hg9 mi
1:00 PM50 °FCool.5 mph87%30.26 "Hg9 mi
12:00 PM49 °FCool.5 mph87%30.26 "Hg9 mi
11:00 AM50 °FCool.3 mph82%30.25 "Hg15 mi
10:00 AM48 °FCool.5 mph86%30.24 "Hg12 mi
9:00 AM47 °FCool.3 mph90%30.24 "Hg8 mi
8:00 AM46 °FCool.3 mph89%30.22 "Hg10 mi
7:00 AM46 °FCool.3 mph89%30.22 "Hg14 mi
6:00 AM47 °FCool.3 mph84%30.20 "Hg16 mi
5:00 AM46 °FCool.3 mph89%30.19 "Hg17 mi
4:00 AM46 °FCool.3 mph89%30.19 "Hg19 mi
3:00 AM46 °FCool.5 mph89%30.18 "Hg19 mi
2:00 AM46 °FCool.3 mph88%30.16 "Hg17 mi
1:00 AM47 °FCool.3 mph82%30.15 "Hg19 mi
12:00 AM48 °FCool.5 mph73%30.14 "Hg19 mi
11:00 PM
Oct 22
48 °FCool.9 mph72%30.12 "Hg19 mi
10:00 PM49 °FCool.8 mph70%30.10 "Hg22 mi
9:00 PM48 °FCool.5 mph75%30.09 "Hg19 mi
8:00 PM48 °FCool.5 mph75%30.07 "Hg22 mi
7:00 PM49 °FCool.5 mph78%30.03 "Hg19 mi
6:00 PM49 °FCool.9 mph74%30.00 "Hg25 mi
5:00 PM49 °FCool.8 mph78%29.98 "Hg25 mi
4:00 PM49 °FCool.8 mph79%29.97 "Hg25 mi
Weather by CustomWeather, © 2014

See weather overviewHow to use our weather pages